Location: Unspecified
(0.0000°N, 0.0000°E)
Time: 11:19:52
(UTC+00:00)

A-11 Canister half - Pass Details

Date: 21 November 2019
Orbit: 1526 x 1683 km, 47.3° (Epoch: 07 December)

Event Time Altitude Azimuth Distance (km) Brightness Sun altitude
Rises 09:34:00 0° 244° (WSW) 4,922 11.5 52.1°
Reaches altitude 10° 09:37:42 10° 254° (WSW) 3,939 11.0 52.9°
Maximum altitude 09:46:07 30° 311° (NW) 2,676 10.3 54.6°
Drops below altitude 10° 09:54:32 10° 9° (N) 3,907 11.1 56.3°
Sets 09:58:16 0° 19° (NNE) 4,877 11.5 57.0°
